Fresno Yosemite International Airport

Airport
ICAO code: 
KFAT
Summary
ICAO Region: 
NAM
Territory: 
Location: 
Fresno, California,
Elevation: 
336 ft
Coordinates: 
Aerial View: 
36° 46' 34.084" N, 119° 43' 4.451" W
Airport LOS: 
Parallel Runway Operation
Metar
Observation
KFAT 251353Z 12005KT 10SM CLR 22/11 A2981 RMK AO2 SLP091 T02220106
Station
Fresno, Fresno Air Terminal
Date/Time
2022-05-25 13:53:00
Wind direction
120°
Wind speed
05 kts
Lowest cloud amount
n/a
Temperature
22.2°C
Dew point
10.6°C
Humidity
47%
Weather condition
n/a

Description

Fresno Yosemite International Airport, formerly known as Fresno Air Terminal, is a joint civil-military (ANG) airport located in eastern Fresno, in Fresno County, California

Climatology

Fresno is marked by a semi-arid climate (Köppen climate classification BSh), with mild, moderately wet winters and hot and dry summers, thus displaying some Mediterranean (Köppen climate classification CSa) characteristics.

Runways

Designator Length Width Surface Rops
11R/29L 2196 30 ASP Yes/Yes
11L/29R 2809 46 ASP Yes/Yes
Airport map: 
Aerial View: 

SKYbrary Partners:

Safety knowledge contributed by: